contact:dominique.lefevre@mio.osupytheas.fr, maurice.libes@osupytheas.fr, didier.mallarino@osupytheas.fr
Project:EMSO http://www.emso-fr.org/EMSO-France
Depth: 2436.0 m
Title:EMSO Ligure Ouest : Data MII capteur MICROCAT
DateTime_Computer,Latitude,Longitude,Temperature,Conductivity,Pressure,DateTime_Instrument
DateTime_Computer,Latitude,Longitude,degC,S m-1,dbar,DateTime_Instrument
2020-07-11T00:01:28Z,42.805,6.029,13.2969,4.59973,2470.203,2020-7-11T02:02:14Z
2020-07-11T00:04:31Z,42.805,6.029,13.2972,4.59973,2470.227,2020-7-11T02:05:17Z
2020-07-11T00:07:34Z,42.805,6.029,13.2972,4.59973,2470.227,2020-7-11T02:08:20Z
2020-07-11T00:10:37Z,42.805,6.029,13.2974,4.59975,2470.203,2020-7-11T02:11:24Z
2020-07-11T00:13:40Z,42.805,6.029,13.2971,4.59974,2470.203,2020-7-11T02:14:27Z
2020-07-11T00:16:44Z,42.805,6.029,13.2969,4.59974,2470.194,2020-7-11T02:17:30Z
2020-07-11T00:19:47Z,42.805,6.029,13.2973,4.59975,2470.203,2020-7-11T02:20:33Z
2020-07-11T00:22:50Z,42.805,6.029,13.2974,4.59975,2470.24,2020-7-11T02:23:37Z
2020-07-11T00:25:54Z,42.805,6.029,13.2970,4.59975,2470.227,2020-7-11T02:26:40Z
2020-07-11T00:28:57Z,42.805,6.029,13.2970,4.59974,2470.203,2020-7-11T02:29:43Z
2020-07-11T00:32:00Z,42.805,6.029,13.2972,4.59976,2470.18,2020-7-11T02:32:47Z
2020-07-11T00:35:04Z,42.805,6.029,13.2970,4.59975,2470.18,2020-7-11T02:35:50Z
2020-07-11T00:38:07Z,42.805,6.029,13.2971,4.59974,2470.203,2020-7-11T02:38:53Z
2020-07-11T00:41:10Z,42.805,6.029,13.2971,4.59974,2470.194,2020-7-11T02:41:56Z
2020-07-11T00:44:13Z,42.805,6.029,13.2973,4.59975,2470.194,2020-7-11T02:45:00Z
2020-07-11T00:47:17Z,42.805,6.029,13.2972,4.59973,2470.156,2020-7-11T02:48:03Z
2020-07-11T00:50:20Z,42.805,6.029,13.2971,4.59974,2470.194,2020-7-11T02:51:06Z
2020-07-11T00:53:23Z,42.805,6.029,13.2971,4.59974,2470.217,2020-7-11T02:54:10Z
2020-07-11T00:56:27Z,42.805,6.029,13.2975,4.59975,2470.217,2020-7-11T02:57:13Z
2020-07-11T00:59:30Z,42.805,6.029,13.2974,4.59976,2470.18,2020-7-11T03:00:16Z
2020-07-11T01:02:33Z,42.805,6.029,13.2976,4.59975,2470.203,2020-7-11T03:03:20Z
2020-07-11T01:05:36Z,42.805,6.029,13.2973,4.59974,2470.217,2020-7-11T03:06:23Z
2020-07-11T01:08:40Z,42.805,6.029,13.2976,4.59974,2470.18,2020-7-11T03:09:26Z
2020-07-11T01:11:43Z,42.805,6.029,13.2971,4.59974,2470.156,2020-7-11T03:12:29Z
2020-07-11T01:14:46Z,42.805,6.029,13.2969,4.59975,2470.18,2020-7-11T03:15:33Z
2020-07-11T01:17:49Z,42.805,6.029,13.2971,4.59975,2470.18,2020-7-11T03:18:36Z
2020-07-11T01:20:52Z,42.805,6.029,13.2971,4.59975,2470.18,2020-7-11T03:21:39Z
2020-07-11T01:23:56Z,42.805,6.029,13.2976,4.59974,2470.156,2020-7-11T03:24:42Z
2020-07-11T01:26:59Z,42.805,6.029,13.2971,4.59974,2470.156,2020-7-11T03:27:45Z
2020-07-11T01:30:02Z,42.805,6.029,13.2973,4.59974,2470.156,2020-7-11T03:30:49Z
2020-07-11T01:33:05Z,42.805,6.029,13.2972,4.59973,2470.156,2020-7-11T03:33:52Z
2020-07-11T01:36:09Z,42.805,6.029,13.2974,4.59974,2470.156,2020-7-11T03:36:55Z
2020-07-11T01:39:12Z,42.805,6.029,13.2967,4.59975,2470.147,2020-7-11T03:39:58Z
2020-07-11T01:42:15Z,42.805,6.029,13.2972,4.59975,2470.156,2020-7-11T03:43:02Z
2020-07-11T01:45:19Z,42.805,6.029,13.2972,4.59973,2470.18,2020-7-11T03:46:05Z
2020-07-11T01:48:22Z,42.805,6.029,13.2972,4.59973,2470.18,2020-7-11T03:49:08Z
2020-07-11T01:51:25Z,42.805,6.029,13.2974,4.59974,2470.156,2020-7-11T03:52:11Z
2020-07-11T01:54:28Z,42.805,6.029,13.2970,4.59975,2470.133,2020-7-11T03:55:15Z
2020-07-11T01:57:31Z,42.805,6.029,13.2970,4.59976,2470.147,2020-7-11T03:58:18Z
2020-07-11T02:00:35Z,42.805,6.029,13.2972,4.59974,2470.18,2020-7-11T04:01:21Z
2020-07-11T02:03:38Z,42.805,6.029,13.2969,4.59975,2470.194,2020-7-11T04:04:24Z
2020-07-11T02:06:41Z,42.805,6.029,13.2976,4.59975,2470.156,2020-7-11T04:07:28Z
2020-07-11T02:09:44Z,42.805,6.029,13.2975,4.59973,2470.18,2020-7-11T04:10:31Z
2020-07-11T02:12:47Z,42.805,6.029,13.2971,4.59974,2470.156,2020-7-11T04:13:34Z
2020-07-11T02:15:51Z,42.805,6.029,13.2975,4.59973,2470.147,2020-7-11T04:16:37Z
2020-07-11T02:18:54Z,42.805,6.029,13.2974,4.59975,2470.171,2020-7-11T04:19:40Z
2020-07-11T02:21:57Z,42.805,6.029,13.2974,4.59973,2470.194,2020-7-11T04:22:44Z
2020-07-11T02:25:01Z,42.805,6.029,13.2974,4.59974,2470.156,2020-7-11T04:25:47Z
2020-07-11T02:28:04Z,42.805,6.029,13.2971,4.59974,2470.147,2020-7-11T04:28:50Z
2020-07-11T02:31:07Z,42.805,6.029,13.2971,4.59975,2470.147,2020-7-11T04:31:54Z
2020-07-11T02:34:11Z,42.805,6.029,13.2971,4.59974,2470.133,2020-7-11T04:34:57Z
2020-07-11T02:37:14Z,42.805,6.029,13.2974,4.59973,2470.147,2020-7-11T04:38:00Z
2020-07-11T02:40:17Z,42.805,6.029,13.2971,4.59974,2470.147,2020-7-11T04:41:03Z
2020-07-11T02:43:20Z,42.805,6.029,13.2976,4.59973,2470.156,2020-7-11T04:44:07Z
2020-07-11T02:46:24Z,42.805,6.029,13.2972,4.59974,2470.11,2020-7-11T04:47:10Z
2020-07-11T02:49:27Z,42.805,6.029,13.2973,4.59975,2470.171,2020-7-11T04:50:13Z
2020-07-11T02:52:30Z,42.805,6.029,13.2976,4.59973,2470.147,2020-7-11T04:53:16Z
2020-07-11T02:55:33Z,42.805,6.029,13.2974,4.59975,2470.133,2020-7-11T04:56:20Z
2020-07-11T02:58:36Z,42.805,6.029,13.2969,4.59974,2470.133,2020-7-11T04:59:23Z
2020-07-11T03:01:40Z,42.805,6.029,13.2975,4.59974,2470.119,2020-7-11T05:02:26Z
2020-07-11T03:04:43Z,42.805,6.029,13.2971,4.59973,2470.133,2020-7-11T05:05:29Z
2020-07-11T03:07:46Z,42.805,6.029,13.2974,4.59974,2470.156,2020-7-11T05:08:33Z
2020-07-11T03:10:49Z,42.805,6.029,13.2971,4.59974,2470.133,2020-7-11T05:11:36Z
2020-07-11T03:13:53Z,42.805,6.029,13.2973,4.59973,2470.133,2020-7-11T05:14:39Z
2020-07-11T03:16:56Z,42.805,6.029,13.2968,4.59973,2470.133,2020-7-11T05:17:42Z
2020-07-11T03:19:59Z,42.805,6.029,13.2976,4.59975,2470.087,2020-7-11T05:20:46Z
2020-07-11T03:23:02Z,42.805,6.029,13.2971,4.59975,2470.147,2020-7-11T05:23:49Z
2020-07-11T03:26:06Z,42.805,6.029,13.2971,4.59973,2470.087,2020-7-11T05:26:52Z
2020-07-11T03:29:09Z,42.805,6.029,13.2969,4.59975,2470.11,2020-7-11T05:29:55Z
2020-07-11T03:32:12Z,42.805,6.029,13.2971,4.59975,2470.087,2020-7-11T05:32:58Z
2020-07-11T03:35:15Z,42.805,6.029,13.2975,4.59973,2470.143,2020-7-11T05:36:02Z
2020-07-11T03:38:19Z,42.805,6.029,13.2971,4.59973,2470.087,2020-7-11T05:39:05Z
2020-07-11T03:41:22Z,42.805,6.029,13.2975,4.59973,2470.124,2020-7-11T05:42:08Z
2020-07-11T03:44:25Z,42.805,6.029,13.2970,4.59973,2470.087,2020-7-11T05:45:12Z
2020-07-11T03:47:29Z,42.805,6.029,13.2971,4.59974,2470.077,2020-7-11T05:48:15Z
2020-07-11T03:50:32Z,42.805,6.029,13.2974,4.59972,2470.133,2020-7-11T05:51:18Z
2020-07-11T03:53:35Z,42.805,6.029,13.2973,4.59974,2470.087,2020-7-11T05:54:21Z
2020-07-11T03:56:38Z,42.805,6.029,13.2973,4.59975,2470.1,2020-7-11T05:57:25Z
2020-07-11T03:59:41Z,42.805,6.029,13.2974,4.59974,2470.11,2020-7-11T06:00:28Z
2020-07-11T04:02:45Z,42.805,6.029,13.2969,4.59973,2470.11,2020-7-11T06:03:31Z
2020-07-11T04:05:48Z,42.805,6.029,13.2968,4.59973,2470.11,2020-7-11T06:06:34Z
2020-07-11T04:08:51Z,42.805,6.029,13.2973,4.59973,2470.087,2020-7-11T06:09:38Z
2020-07-11T04:11:54Z,42.805,6.029,13.2974,4.59973,2470.11,2020-7-11T06:12:41Z
2020-07-11T04:14:58Z,42.805,6.029,13.2971,4.59973,2470.087,2020-7-11T06:15:44Z
2020-07-11T04:18:01Z,42.805,6.029,13.2974,4.59973,2470.11,2020-7-11T06:18:47Z
2020-07-11T04:21:04Z,42.805,6.029,13.2974,4.59973,2470.11,2020-7-11T06:21:51Z
2020-07-11T04:24:07Z,42.805,6.029,13.2974,4.59973,2470.087,2020-7-11T06:24:54Z
2020-07-11T04:27:11Z,42.805,6.029,13.2974,4.59973,2470.087,2020-7-11T06:27:57Z
2020-07-11T04:30:14Z,42.805,6.029,13.2973,4.59971,2470.11,2020-7-11T06:31:00Z
2020-07-11T04:33:17Z,42.805,6.029,13.2970,4.59973,2470.087,2020-7-11T06:34:04Z
2020-07-11T04:36:20Z,42.805,6.029,13.2973,4.59972,2470.124,2020-7-11T06:37:07Z
2020-07-11T04:39:24Z,42.805,6.029,13.2972,4.59973,2470.11,2020-7-11T06:40:10Z
2020-07-11T04:42:27Z,42.805,6.029,13.2974,4.59973,2470.1,2020-7-11T06:43:13Z
2020-07-11T04:45:30Z,42.805,6.029,13.2973,4.59973,2470.087,2020-7-11T06:46:16Z
2020-07-11T04:48:33Z,42.805,6.029,13.2973,4.59972,2470.1,2020-7-11T06:49:20Z
2020-07-11T04:51:36Z,42.805,6.029,13.2977,4.59973,2470.11,2020-7-11T06:52:23Z
2020-07-11T04:54:40Z,42.805,6.029,13.2971,4.59973,2470.087,2020-7-11T06:55:26Z
2020-07-11T04:57:43Z,42.805,6.029,13.2972,4.59973,2470.11,2020-7-11T06:58:29Z
2020-07-11T05:00:46Z,42.805,6.029,13.2971,4.59973,2470.11,2020-7-11T07:01:33Z
2020-07-11T05:03:49Z,42.805,6.029,13.2968,4.59975,2470.087,2020-7-11T07:04:36Z
2020-07-11T05:06:53Z,42.805,6.029,13.2972,4.59973,2470.087,2020-7-11T07:07:39Z
2020-07-11T05:09:56Z,42.805,6.029,13.2973,4.59973,2470.087,2020-7-11T07:10:42Z
2020-07-11T05:12:59Z,42.805,6.029,13.2969,4.59975,2470.087,2020-7-11T07:13:46Z
2020-07-11T05:16:02Z,42.805,6.029,13.2969,4.59973,2470.063,2020-7-11T07:16:49Z
2020-07-11T05:19:06Z,42.805,6.029,13.2974,4.59973,2470.087,2020-7-11T07:19:52Z
2020-07-11T05:22:09Z,42.805,6.029,13.2972,4.59975,2470.087,2020-7-11T07:22:55Z
2020-07-11T05:25:12Z,42.805,6.029,13.2972,4.59975,2470.087,2020-7-11T07:25:59Z
2020-07-11T05:28:15Z,42.805,6.029,13.2971,4.59973,2470.1,2020-7-11T07:29:02Z
2020-07-11T05:31:19Z,42.805,6.029,13.2972,4.59973,2470.063,2020-7-11T07:32:05Z
2020-07-11T05:34:22Z,42.805,6.029,13.2965,4.59973,2470.017,2020-7-11T07:35:08Z
2020-07-11T05:37:25Z,42.805,6.029,13.2970,4.59974,2470.063,2020-7-11T07:38:12Z
2020-07-11T05:40:28Z,42.805,6.029,13.2971,4.59973,2470.063,2020-7-11T07:41:15Z
2020-07-11T05:43:32Z,42.805,6.029,13.2972,4.59973,2470.063,2020-7-11T07:44:18Z
2020-07-11T05:46:35Z,42.805,6.029,13.2966,4.59972,2470.077,2020-7-11T07:47:21Z
2020-07-11T05:49:38Z,42.805,6.029,13.2971,4.59973,2470.063,2020-7-11T07:50:25Z
2020-07-11T05:52:41Z,42.805,6.029,13.2973,4.59973,2470.087,2020-7-11T07:53:28Z
2020-07-11T05:55:45Z,42.805,6.029,13.2968,4.59976,2470.04,2020-7-11T07:56:31Z
2020-07-11T05:58:48Z,42.805,6.029,13.2974,4.59973,2470.087,2020-7-11T07:59:34Z
2020-07-11T06:01:51Z,42.805,6.029,13.2973,4.59973,2470.063,2020-7-11T08:02:38Z
2020-07-11T06:04:54Z,42.805,6.029,13.2970,4.59973,2470.077,2020-7-11T08:05:41Z
2020-07-11T06:07:58Z,42.805,6.029,13.2972,4.59973,2470.087,2020-7-11T08:08:44Z
2020-07-11T06:11:01Z,42.805,6.029,13.2972,4.59972,2470.087,2020-7-11T08:11:47Z
2020-07-11T06:14:04Z,42.805,6.029,13.2972,4.59973,2470.077,2020-7-11T08:14:51Z
2020-07-11T06:17:08Z,42.805,6.029,13.2969,4.59973,2470.077,2020-7-11T08:17:54Z
2020-07-11T06:20:11Z,42.805,6.029,13.2973,4.59973,2470.04,2020-7-11T08:20:57Z
2020-07-11T06:23:14Z,42.805,6.029,13.2974,4.59973,2470.087,2020-7-11T08:24:01Z
2020-07-11T06:26:18Z,42.805,6.029,13.2973,4.59973,2470.063,2020-7-11T08:27:04Z
2020-07-11T06:29:21Z,42.805,6.029,13.2971,4.59973,2470.077,2020-7-11T08:30:07Z
2020-07-11T06:32:24Z,42.805,6.029,13.2971,4.59973,2470.04,2020-7-11T08:33:11Z
2020-07-11T06:35:27Z,42.805,6.029,13.2971,4.59973,2470.04,2020-7-11T08:36:14Z
2020-07-11T06:38:31Z,42.805,6.029,13.2973,4.59974,2470.04,2020-7-11T08:39:17Z
2020-07-11T06:41:34Z,42.805,6.029,13.2971,4.59974,2470.063,2020-7-11T08:42:20Z
2020-07-11T06:44:37Z,42.805,6.029,13.2973,4.59973,2470.063,2020-7-11T08:45:23Z
2020-07-11T06:47:40Z,42.805,6.029,13.2972,4.59973,2470.077,2020-7-11T08:48:27Z
2020-07-11T06:50:43Z,42.805,6.029,13.2969,4.59973,2470.063,2020-7-11T08:51:30Z
2020-07-11T06:53:47Z,42.805,6.029,13.2971,4.59977,2470.04,2020-7-11T08:54:33Z
2020-07-11T06:56:50Z,42.805,6.029,13.2969,4.59974,2470.04,2020-7-11T08:57:36Z
2020-07-11T06:59:53Z,42.805,6.029,13.2974,4.59974,2470.04,2020-7-11T09:00:39Z
2020-07-11T07:02:56Z,42.805,6.029,13.2971,4.59976,2470.077,2020-7-11T09:03:43Z
2020-07-11T07:06:00Z,42.805,6.029,13.2976,4.59974,2470.063,2020-7-11T09:06:46Z
2020-07-11T07:09:03Z,42.805,6.029,13.2970,4.59975,2470.1,2020-7-11T09:09:49Z
2020-07-11T07:12:06Z,42.805,6.029,13.2971,4.59974,2470.063,2020-7-11T09:12:52Z
2020-07-11T07:15:09Z,42.805,6.029,13.2972,4.59975,2470.04,2020-7-11T09:15:56Z
2020-07-11T07:18:13Z,42.805,6.029,13.2973,4.59975,2470.077,2020-7-11T09:18:59Z
2020-07-11T07:21:16Z,42.805,6.029,13.2972,4.59973,2470.063,2020-7-11T09:22:03Z
2020-07-11T07:24:19Z,42.805,6.029,13.2974,4.59976,2470.063,2020-7-11T09:25:06Z
2020-07-11T07:27:23Z,42.805,6.029,13.2974,4.59976,2470.063,2020-7-11T09:28:09Z
2020-07-11T07:30:26Z,42.805,6.029,13.2974,4.59976,2470.063,2020-7-11T09:31:12Z
2020-07-11T07:33:29Z,42.805,6.029,13.2971,4.59975,2470.1,2020-7-11T09:34:15Z
2020-07-11T07:36:32Z,42.805,6.029,13.2973,4.59975,2470.087,2020-7-11T09:37:19Z
2020-07-11T07:39:35Z,42.805,6.029,13.2971,4.59973,2470.1,2020-7-11T09:40:22Z
2020-07-11T07:42:39Z,42.805,6.029,13.2974,4.59975,2470.087,2020-7-11T09:43:25Z
2020-07-11T07:45:42Z,42.805,6.029,13.2972,4.59976,2470.063,2020-7-11T09:46:28Z
2020-07-11T07:48:45Z,42.805,6.029,13.2972,4.59976,2470.077,2020-7-11T09:49:32Z
2020-07-11T07:51:48Z,42.805,6.029,13.2974,4.59976,2470.063,2020-7-11T09:52:35Z
2020-07-11T07:54:52Z,42.805,6.029,13.2973,4.59974,2470.073,2020-7-11T09:55:38Z
2020-07-11T07:57:55Z,42.805,6.029,13.2974,4.59975,2470.063,2020-7-11T09:58:41Z
2020-07-11T08:00:58Z,42.805,6.029,13.2976,4.59976,2470.087,2020-7-11T10:01:45Z
2020-07-11T08:04:01Z,42.805,6.029,13.2976,4.59975,2470.077,2020-7-11T10:04:48Z
2020-07-11T08:07:05Z,42.805,6.029,13.2975,4.59975,2470.087,2020-7-11T10:07:51Z
2020-07-11T08:10:08Z,42.805,6.029,13.2976,4.59977,2470.063,2020-7-11T10:10:54Z
2020-07-11T08:13:11Z,42.805,6.029,13.2974,4.59975,2470.11,2020-7-11T10:13:57Z
2020-07-11T08:16:14Z,42.805,6.029,13.2972,4.59975,2470.087,2020-7-11T10:17:01Z
2020-07-11T08:19:17Z,42.805,6.029,13.2976,4.59975,2470.124,2020-7-11T10:20:04Z
2020-07-11T08:22:21Z,42.805,6.029,13.2971,4.59976,2470.1,2020-7-11T10:23:07Z
2020-07-11T08:25:24Z,42.805,6.029,13.2971,4.59975,2470.11,2020-7-11T10:26:10Z
2020-07-11T08:28:27Z,42.805,6.029,13.2972,4.59974,2470.124,2020-7-11T10:29:14Z
2020-07-11T08:31:31Z,42.805,6.029,13.2979,4.59976,2470.124,2020-7-11T10:32:17Z
2020-07-11T08:34:34Z,42.805,6.029,13.2974,4.59976,2470.087,2020-7-11T10:35:21Z
2020-07-11T08:37:37Z,42.805,6.029,13.2973,4.59975,2470.147,2020-7-11T10:38:24Z
2020-07-11T08:40:41Z,42.805,6.029,13.2972,4.59976,2470.096,2020-7-11T10:41:27Z
2020-07-11T08:43:44Z,42.805,6.029,13.2972,4.59976,2470.087,2020-7-11T10:44:30Z
2020-07-11T08:46:47Z,42.805,6.029,13.2975,4.59976,2470.11,2020-7-11T10:47:33Z
2020-07-11T08:49:50Z,42.805,6.029,13.2976,4.59976,2470.11,2020-7-11T10:50:37Z
2020-07-11T08:52:54Z,42.805,6.029,13.2972,4.59976,2470.087,2020-7-11T10:53:40Z
2020-07-11T08:55:57Z,42.805,6.029,13.2976,4.59976,2470.077,2020-7-11T10:56:43Z
2020-07-11T08:59:00Z,42.805,6.029,13.2973,4.59976,2470.11,2020-7-11T10:59:47Z
2020-07-11T09:02:03Z,42.805,6.029,13.2972,4.59976,2470.087,2020-7-11T11:02:50Z
2020-07-11T09:05:07Z,42.805,6.029,13.2976,4.59976,2470.087,2020-7-11T11:05:53Z
2020-07-11T09:08:10Z,42.805,6.029,13.2971,4.59976,2470.133,2020-7-11T11:08:56Z
2020-07-11T09:11:13Z,42.805,6.029,13.2974,4.59976,2470.133,2020-7-11T11:12:00Z
2020-07-11T09:14:16Z,42.805,6.029,13.2974,4.59975,2470.124,2020-7-11T11:15:03Z
2020-07-11T09:17:20Z,42.805,6.029,13.2973,4.59976,2470.11,2020-7-11T11:18:06Z
2020-07-11T09:20:23Z,42.805,6.029,13.2976,4.59976,2470.087,2020-7-11T11:21:09Z
2020-07-11T09:23:26Z,42.805,6.029,13.2975,4.59976,2470.147,2020-7-11T11:24:12Z
2020-07-11T09:26:29Z,42.805,6.029,13.2974,4.59977,2470.087,2020-7-11T11:27:16Z
2020-07-11T09:29:33Z,42.805,6.029,13.2972,4.59976,2470.11,2020-7-11T11:30:19Z
2020-07-11T09:32:36Z,42.805,6.029,13.2977,4.59977,2470.11,2020-7-11T11:33:22Z
2020-07-11T09:35:39Z,42.805,6.029,13.2975,4.59977,2470.11,2020-7-11T11:36:25Z
2020-07-11T09:38:42Z,42.805,6.029,13.2970,4.59978,2470.11,2020-7-11T11:39:29Z
2020-07-11T09:41:46Z,42.805,6.029,13.2974,4.59976,2470.124,2020-7-11T11:42:32Z
2020-07-11T09:44:49Z,42.805,6.029,13.2974,4.59976,2470.147,2020-7-11T11:45:35Z
2020-07-11T09:47:52Z,42.805,6.029,13.2971,4.59976,2470.133,2020-7-11T11:48:39Z
2020-07-11T09:50:55Z,42.805,6.029,13.2973,4.59978,2470.133,2020-7-11T11:51:42Z
2020-07-11T09:53:59Z,42.805,6.029,13.2974,4.59976,2470.124,2020-7-11T11:54:45Z
2020-07-11T09:57:02Z,42.805,6.029,13.2976,4.59978,2470.124,2020-7-11T11:57:48Z
2020-07-11T10:00:05Z,42.805,6.029,13.2973,4.59976,2470.171,2020-7-11T12:00:52Z
2020-07-11T10:03:08Z,42.805,6.029,13.2974,4.59976,2470.133,2020-7-11T12:03:55Z
2020-07-11T10:06:12Z,42.805,6.029,13.2973,4.59978,2470.11,2020-7-11T12:06:58Z
2020-07-11T10:09:15Z,42.805,6.029,13.2975,4.59976,2470.147,2020-7-11T12:10:01Z
2020-07-11T10:12:19Z,42.805,6.029,13.2976,4.59976,2470.11,2020-7-11T12:13:05Z
2020-07-11T10:15:22Z,42.805,6.029,13.2974,4.59976,2470.156,2020-7-11T12:16:08Z
2020-07-11T10:18:25Z,42.805,6.029,13.2976,4.59976,2470.124,2020-7-11T12:19:11Z
2020-07-11T10:21:28Z,42.805,6.029,13.2975,4.59977,2470.124,2020-7-11T12:22:15Z
2020-07-11T10:24:31Z,42.805,6.029,13.2972,4.59976,2470.087,2020-7-11T12:25:18Z
2020-07-11T10:27:35Z,42.805,6.029,13.2975,4.59976,2470.147,2020-7-11T12:28:21Z
2020-07-11T10:30:38Z,42.805,6.029,13.2971,4.59977,2470.11,2020-7-11T12:31:24Z
2020-07-11T10:33:41Z,42.805,6.029,13.2973,4.59978,2470.133,2020-7-11T12:34:28Z
2020-07-11T10:36:45Z,42.805,6.029,13.2976,4.59976,2470.133,2020-7-11T12:37:31Z
2020-07-11T10:39:48Z,42.805,6.029,13.2976,4.59978,2470.11,2020-7-11T12:40:34Z
2020-07-11T10:42:51Z,42.805,6.029,13.2975,4.59976,2470.133,2020-7-11T12:43:37Z
2020-07-11T10:45:54Z,42.805,6.029,13.2971,4.59976,2470.171,2020-7-11T12:46:41Z
2020-07-11T10:48:57Z,42.805,6.029,13.2971,4.59978,2470.171,2020-7-11T12:49:44Z
2020-07-11T10:52:01Z,42.805,6.029,13.2976,4.59976,2470.124,2020-7-11T12:52:48Z
2020-07-11T10:55:04Z,42.805,6.029,13.2975,4.59976,2470.124,2020-7-11T12:55:51Z
2020-07-11T10:58:08Z,42.805,6.029,13.2977,4.59976,2470.124,2020-7-11T12:58:54Z
2020-07-11T11:01:11Z,42.805,6.029,13.2976,4.59978,2470.124,2020-7-11T13:01:57Z
2020-07-11T11:04:14Z,42.805,6.029,13.2976,4.59977,2470.147,2020-7-11T13:05:01Z
2020-07-11T11:07:17Z,42.805,6.029,13.2974,4.59977,2470.124,2020-7-11T13:08:04Z
2020-07-11T11:10:20Z,42.805,6.029,13.2972,4.59976,2470.147,2020-7-11T13:11:07Z
2020-07-11T11:13:24Z,42.805,6.029,13.2978,4.59976,2470.133,2020-7-11T13:14:10Z
2020-07-11T11:16:27Z,42.805,6.029,13.2971,4.59976,2470.087,2020-7-11T13:17:13Z
2020-07-11T11:19:30Z,42.805,6.029,13.2974,4.59977,2470.147,2020-7-11T13:20:17Z
2020-07-11T11:22:34Z,42.805,6.029,13.2975,4.59976,2470.133,2020-7-11T13:23:20Z
2020-07-11T11:25:37Z,42.805,6.029,13.2976,4.59977,2470.11,2020-7-11T13:26:23Z
2020-07-11T11:28:40Z,42.805,6.029,13.2974,4.59976,2470.133,2020-7-11T13:29:26Z
2020-07-11T11:31:43Z,42.805,6.029,13.2978,4.59976,2470.147,2020-7-11T13:32:30Z
2020-07-11T11:34:47Z,42.805,6.029,13.2973,4.59976,2470.11,2020-7-11T13:35:33Z
2020-07-11T11:37:50Z,42.805,6.029,13.2975,4.59978,2470.133,2020-7-11T13:38:36Z
2020-07-11T11:40:53Z,42.805,6.029,13.2973,4.59978,2470.11,2020-7-11T13:41:39Z
2020-07-11T11:43:56Z,42.805,6.029,13.2971,4.59978,2470.11,2020-7-11T13:44:43Z
2020-07-11T11:47:00Z,42.805,6.029,13.2972,4.59978,2470.087,2020-7-11T13:47:46Z
2020-07-11T11:50:03Z,42.805,6.029,13.2971,4.59978,2470.124,2020-7-11T13:50:49Z
2020-07-11T11:53:06Z,42.805,6.029,13.2974,4.59977,2470.087,2020-7-11T13:53:53Z
2020-07-11T11:56:09Z,42.805,6.029,13.2974,4.59976,2470.11,2020-7-11T13:56:56Z
2020-07-11T11:59:13Z,42.805,6.029,13.2974,4.59978,2470.147,2020-7-11T13:59:59Z
2020-07-11T12:02:16Z,42.805,6.029,13.2973,4.59978,2470.147,2020-7-11T14:03:02Z
2020-07-11T12:05:19Z,42.805,6.029,13.2968,4.59976,2470.11,2020-7-11T14:06:06Z
2020-07-11T12:08:22Z,42.805,6.029,13.2973,4.59976,2470.124,2020-7-11T14:09:09Z
2020-07-11T12:11:26Z,42.805,6.029,13.2976,4.59978,2470.11,2020-7-11T14:12:12Z
2020-07-11T12:14:29Z,42.805,6.029,13.2976,4.59976,2470.147,2020-7-11T14:15:15Z
2020-07-11T12:17:32Z,42.805,6.029,13.2972,4.59978,2470.063,2020-7-11T14:18:19Z
2020-07-11T12:20:35Z,42.805,6.029,13.2974,4.59976,2470.147,2020-7-11T14:21:22Z
2020-07-11T12:23:38Z,42.805,6.029,13.2975,4.59979,2470.124,2020-7-11T14:24:25Z
2020-07-11T12:26:42Z,42.805,6.029,13.2976,4.59976,2470.124,2020-7-11T14:27:28Z
2020-07-11T12:29:45Z,42.805,6.029,13.2974,4.59978,2470.087,2020-7-11T14:30:31Z
2020-07-11T12:32:48Z,42.805,6.029,13.2978,4.59978,2470.087,2020-7-11T14:33:35Z
2020-07-11T12:35:51Z,42.805,6.029,13.2974,4.59977,2470.11,2020-7-11T14:36:38Z
2020-07-11T12:38:55Z,42.805,6.029,13.2976,4.59977,2470.11,2020-7-11T14:39:41Z
2020-07-11T12:41:58Z,42.805,6.029,13.2975,4.59977,2470.147,2020-7-11T14:42:44Z
2020-07-11T12:45:01Z,42.805,6.029,13.2977,4.59978,2470.124,2020-7-11T14:45:48Z
2020-07-11T12:48:04Z,42.805,6.029,13.2971,4.59976,2470.11,2020-7-11T14:48:51Z
2020-07-11T12:51:08Z,42.805,6.029,13.2974,4.59978,2470.087,2020-7-11T14:51:54Z
2020-07-11T12:54:11Z,42.805,6.029,13.2971,4.59976,2470.124,2020-7-11T14:54:58Z
2020-07-11T12:57:14Z,42.805,6.029,13.2976,4.59977,2470.087,2020-7-11T14:58:01Z
2020-07-11T13:00:18Z,42.805,6.029,13.2978,4.59978,2470.1,2020-7-11T15:01:04Z
2020-07-11T13:03:21Z,42.805,6.029,13.2980,4.59977,2470.1,2020-7-11T15:04:07Z
2020-07-11T13:06:24Z,42.805,6.029,13.2978,4.59976,2470.073,2020-7-11T15:07:11Z
2020-07-11T13:09:27Z,42.805,6.029,13.2977,4.59976,2470.11,2020-7-11T15:10:14Z
2020-07-11T13:12:31Z,42.805,6.029,13.2978,4.59977,2470.087,2020-7-11T15:13:17Z
2020-07-11T13:15:34Z,42.805,6.029,13.2977,4.59976,2470.087,2020-7-11T15:16:20Z
2020-07-11T13:18:37Z,42.805,6.029,13.2975,4.59978,2470.11,2020-7-11T15:19:23Z
2020-07-11T13:21:40Z,42.805,6.029,13.2976,4.59978,2470.1,2020-7-11T15:22:27Z
2020-07-11T13:24:44Z,42.805,6.029,13.2972,4.59978,2470.077,2020-7-11T15:25:30Z
2020-07-11T13:27:47Z,42.805,6.029,13.2974,4.59978,2470.087,2020-7-11T15:28:33Z
2020-07-11T13:30:50Z,42.805,6.029,13.2972,4.59977,2470.087,2020-7-11T15:31:36Z
2020-07-11T13:33:54Z,42.805,6.029,13.2978,4.59977,2470.1,2020-7-11T15:34:40Z
2020-07-11T13:36:57Z,42.805,6.029,13.2975,4.59976,2470.124,2020-7-11T15:37:43Z
2020-07-11T13:40:00Z,42.805,6.029,13.2975,4.59978,2470.077,2020-7-11T15:40:46Z
2020-07-11T13:43:03Z,42.805,6.029,13.2975,4.59976,2470.077,2020-7-11T15:43:50Z
2020-07-11T13:46:07Z,42.805,6.029,13.2979,4.59976,2470.053,2020-7-11T15:46:53Z
2020-07-11T13:49:10Z,42.805,6.029,13.2974,4.59978,2470.063,2020-7-11T15:49:56Z
2020-07-11T13:52:13Z,42.805,6.029,13.2976,4.59978,2470.063,2020-7-11T15:52:59Z
2020-07-11T13:55:16Z,42.805,6.029,13.2973,4.59976,2470.1,2020-7-11T15:56:03Z
2020-07-11T13:58:19Z,42.805,6.029,13.2976,4.59976,2470.063,2020-7-11T15:59:06Z
2020-07-11T14:01:23Z,42.805,6.029,13.2976,4.59976,2470.087,2020-7-11T16:02:09Z
2020-07-11T14:04:26Z,42.805,6.029,13.2975,4.59978,2470.087,2020-7-11T16:05:12Z
2020-07-11T14:07:29Z,42.805,6.029,13.2974,4.59976,2470.087,2020-7-11T16:08:16Z
2020-07-11T14:10:32Z,42.805,6.029,13.2974,4.59976,2470.087,2020-7-11T16:11:19Z
2020-07-11T14:13:36Z,42.805,6.029,13.2981,4.59977,2470.1,2020-7-11T16:14:22Z
2020-07-11T14:16:39Z,42.805,6.029,13.2972,4.59978,2470.087,2020-7-11T16:17:25Z
2020-07-11T14:19:42Z,42.805,6.029,13.2976,4.59976,2470.087,2020-7-11T16:20:29Z
2020-07-11T14:22:45Z,42.805,6.029,13.2977,4.59977,2470.077,2020-7-11T16:23:32Z
2020-07-11T14:25:49Z,42.805,6.029,13.2973,4.59977,2470.063,2020-7-11T16:26:35Z
2020-07-11T14:28:52Z,42.805,6.029,13.2974,4.59978,2470.087,2020-7-11T16:29:38Z
2020-07-11T14:31:55Z,42.805,6.029,13.2976,4.59978,2470.063,2020-7-11T16:32:42Z
2020-07-11T14:34:58Z,42.805,6.029,13.2974,4.59976,2470.053,2020-7-11T16:35:45Z
2020-07-11T14:38:02Z,42.805,6.029,13.2973,4.59976,2470.053,2020-7-11T16:38:48Z
2020-07-11T14:41:05Z,42.805,6.029,13.2974,4.59976,2470.063,2020-7-11T16:41:51Z
2020-07-11T14:44:08Z,42.805,6.029,13.2977,4.59978,2470.077,2020-7-11T16:44:55Z
2020-07-11T14:47:12Z,42.805,6.029,13.2974,4.59978,2470.087,2020-7-11T16:47:58Z
2020-07-11T14:50:15Z,42.805,6.029,13.2974,4.59978,2470.087,2020-7-11T16:51:01Z
2020-07-11T14:53:18Z,42.805,6.029,13.2974,4.59976,2470.063,2020-7-11T16:54:05Z
2020-07-11T14:56:22Z,42.805,6.029,13.2973,4.59976,2470.077,2020-7-11T16:57:08Z
2020-07-11T14:59:25Z,42.805,6.029,13.2975,4.59976,2470.04,2020-7-11T17:00:11Z
2020-07-11T15:02:28Z,42.805,6.029,13.2975,4.59975,2470.04,2020-7-11T17:03:14Z
2020-07-11T15:05:31Z,42.805,6.029,13.2974,4.59976,2470.04,2020-7-11T17:06:18Z
2020-07-11T15:08:35Z,42.805,6.029,13.2975,4.59977,2470.04,2020-7-11T17:09:21Z
2020-07-11T15:11:38Z,42.805,6.029,13.2974,4.59976,2470.04,2020-7-11T17:12:25Z
2020-07-11T15:14:41Z,42.805,6.029,13.2975,4.59978,2470.077,2020-7-11T17:15:28Z